Showing default

LEO 1, 43113

Orbit data source: Space-Track

LEO 1, 43113 is a payload satellite owned by Telesat (Loral) (US) in SSO that was launched on Fri, 12 Jan 2018 UTC via a PSLV-XL launch vehicle from the Sirharikota (SRI). Payload-class satellites include a variety of spacecraft equipped with specific instruments for various scientific and technological missions. These include communications satellites like Starlink; space stations such as the ISS; scientific satellites like the Hubble; Earth observation satellites from companies like Planet Labs, Umbra, and HawkEye 360; GPS; miniature CubeSats for education and research; and military/defense satellites.

Loading next visibility...
Identifier
43113, 2018-004C
Orbit
SSO
Country
Flag of USUS
Related business
Manufacturer
SSTL (Astrium)
Mission
Partially operational Commercial Communications
Bus & Motor
SSTL-42, Unknown motor
Mass
~100 kg wet, ~100 kg dry
Launch date (UTC)
2018-01-12 (8 years ago)
Launch vehicle
PSLV-XL
Launch site
Sirharikota (SRI)
Object type
Payload
Rocket body
Debris
Shape & HBR
Box + 1 Dish, 0.5 m
Radar Cross Section
0.735 m², Medium (>0.1 m² and < 1m²)

Expand to show TLE details & history
Last TLE update: 12 hours ago

TLE from 12 hours ago
0 LEO 1
1 43113U 18004C   25260.73510079  .00002625  00000-0  19041-3 0  9995
2 43113  99.2622 138.6655 0358073 194.1941 164.8990 14.65573823397542
Epoch: 2025-09-17T17:38Z
TLE epoch observation values (Epoch: 2025-09-17T17:38:32.708Z)
Latitude
-0.00001°
Longitude
-122.87757°
Altitude
922.669 km
Speed
7.261 km/s
True Right ascension
09h 14m 39s
True Declination
0° 00' 00"
Sunlit
Object was in daylight at epoch
Visualization orbit readout
Latitude
Unknown
Longitude
Unknown
Altitude
Unknown
Speed
Unknown
Apparent Right ascension
Unknown
Apparent Declination
Unknown
Sunlit
N/A
Visualization observer readout
Local Sidereal Time
22:55:28
Azimuth
Unknown
Elevation
Unknown
Doppler factor
Unknown
Orbital elements
Apogee altitude
924.813 km
Perigee altitude
419.895 km
Semi-major axis
7,050.491 km
Eccentricity
0.03581
Inclination
99.2622°
RAAN
138.6655°
Arg. of periapsis
194.1941°
True anomaly
165.92357°
Mean anomaly
164.899°
Eccentric anomaly
165.41561°
Mean motion
3.66618 °/min
Orbital period
98.19 mins
BSTAR
0.00019041
Loading maneuver chart data...
Computing Atmospheric mass density...

Documentation

Showing up to 5 results
|